Flag for U.S.A. Weather past 2 weeks in Sarasota, Florida, U.S.A.

Now
79 °F

Sunny.


Feels Like: 82 °F
Forecast: 74 / 85 °F
Wind: 10 mph from Southeast

Location: Sarasota-Bradenton International Airport

Current Time: Sep 23, 2014 at 10:30:18 AM

Latest Report: Sep 23, 2014 at 9:53 AM


Visibility: 10 mi

Pressure: 30.00 "Hg

Humidity: 82%

Dew point: 73 °F

Location of SarasotaLocation

Historic Weather in Sarasota — Graph

°F

Sarasota temperature yesterday

Maximum temperature yesterday: 85 °F (at 11:53 AM)
Minimum temperature yesterday: 72 °F (at 9:53 PM)
Average temperature yesterday: 76 °F

Past Weeks' High & Low Weather Summary

 TemperatureHumidityPressure
High92 °F (Sep 10, 2:53 PM)100% (Sep 18, 3:53 AM)30.15 "Hg (Sep 18, 3:53 AM)
Low70 °F (Sep 19, 7:53 PM)49% (Sep 10, 3:53 PM)29.85 "Hg (Sep 18, 4:53 PM)
Average79 °F82%29.98 "Hg
* Reported Sep 8 8:53 AM — Sep 23 8:53 AM, Sarasota, Weather by CustomWeather, © 2014

Note: Actual official high and low records may vary slightly from our data, if they occured in-between our weather recording intervals... More about our weather records

Advertising

Sarasota weather history for previous 24 hours

 ConditionsComfort  
Time TempWeatherWind HumidityBarometerVisibility
8:53 AM
Sep 23
74 °FOvercast.8 mph94%30.00 "Hg10 mi
7:53 AM72 °FClear.10 mph97%29.98 "Hg10 mi
6:53 AM72 °FClear.8 mph93%29.98 "Hg10 mi
5:53 AM71 °FClear.5 mph96%29.95 "Hg10 mi
4:53 AM71 °FPassing clouds.6 mph100%29.93 "Hg10 mi
3:53 AM72 °FPassing clouds.5 mph97%29.95 "Hg10 mi
3:02 AM72 °FPassing clouds.6 mph97%29.97 "Hg10 mi
2:53 AM72 °FPartly cloudy.6 mph97%29.97 "Hg10 mi
1:53 AM72 °FPassing clouds.6 mph97%29.98 "Hg10 mi
12:53 AM72 °FClear.6 mph100%29.98 "Hg10 mi
11:53 PM
Sep 22
72 °FClear.3 mph97%29.98 "Hg10 mi
10:53 PM72 °FClear.6 mph97%29.98 "Hg10 mi
9:53 PM72 °FPassing clouds.5 mph97%29.97 "Hg10 mi
8:53 PM73 °FPassing clouds.No wind94%29.99 "Hg10 mi
7:53 PM74 °FLight rain. Passing clouds.7 mph94%29.98 "Hg10 mi
6:53 PM76 °FLight rain. Mostly cloudy.9 mph85%29.98 "Hg10 mi
5:53 PM75 °FRain. Fog.12 mph90%29.96 "Hg5 mi
4:53 PM75 °FLight rain. Broken clouds.9 mph94%29.99 "Hg8 mi
3:53 PM75 °FLight rain. Passing clouds.No wind94%29.99 "Hg9 mi
2:53 PM74 °FLight rain. Mostly cloudy.5 mph97%29.98 "Hg7 mi
2:02 PM75 °FThundershowers. Mostly cloudy.10 mph88%30.00 "Hg10 mi
1:53 PM75 °FLight rain. Mostly cloudy.8 mph85%30.00 "Hg10 mi
12:53 PM80 °FThundershowers. Passing clouds.7 mph69%30.02 "Hg10 mi
11:53 AM85 °FScattered clouds.8 mph72%30.01 "Hg10 mi
10:53 AM83 °FScattered clouds.6 mph77%30.02 "Hg10 mi
Weather by CustomWeather, © 2014

See weather overviewHow to use our weather pages